Home   Weather   Mürzzuschlag   Past weeks

Flag for Austria Past Weather in Mürzzuschlag, Styria, Austria — Yesterday and Last 2 Weeks

Now
29 °F

Overcast.


Feels Like: 29 °F
Forecast: 17 / 33 °F
Wind: 1 mph from South

Location: Eisenstadt

Current Time: Dec 6, 2016 at 6:56:47 am

Latest Report: Dec 6, 2016 at 6:00 am


Visibility: 6 mi

Pressure: 30.39 "Hg (27.93 "Hg at 670m altitude)

Humidity: 90%

Dew Point: 26 °F

Location of MürzzuschlagLocation

Past Weather in Mürzzuschlag — Graph

°F

Mürzzuschlag Temperature Yesterday

Maximum temperature yesterday: 38 °F (at 1:00 pm)
Minimum temperature yesterday: 26 °F (at 5:00 am)
Average temperature yesterday: 31 °F

High & Low Weather Summary for the Past Weeks

 TemperatureHumidityPressure
High63 °F (Nov 22, 2:00 pm)97% (Nov 25, 7:00 am)30.55 "Hg (Nov 25, 7:00 am)
Low24 °F (Dec 4, 8:00 am)32% (Nov 30, 10:00 pm)29.78 "Hg (Dec 2, 8:00 am)
Average40 °F76%30.19 "Hg
* Reported Nov 21 5:00 am — Dec 6 5:00 am, Mürzzuschlag, Weather by CustomWeather, © 2016

Note: Actual official high and low records may vary slightly from our data, if they occured in-between our weather recording intervals... More about our weather records

Advertising

Mürzzuschlag Weather History for the Previous 24 Hours

Scroll right to see more
 ConditionsComfort  
Time TempWeatherWind HumidityBarometerVisibility
5:00 am
Tue, Dec 6
29 °FChilly.2 mph90%30.38 "HgN/A
4:00 am29 °FOvercast.1 mph86%30.39 "Hg6 mi
3:00 am29 °FChilly.1 mph88%30.40 "HgN/A
2:00 am29 °FChilly.1 mph88%30.40 "HgN/A
1:00 am29 °FOvercast.1 mph87%30.40 "Hg7 mi
12:00 am29 °FChilly.1 mph89%30.40 "HgN/A
11:00 pm
Mon, Dec 5
29 °FChilly.3 mph89%30.41 "HgN/A
10:00 pm29 °FClear.5 mph89%30.40 "Hg5 mi
9:00 pm29 °FChilly.5 mph89%30.40 "HgN/A
8:00 pm29 °FChilly.3 mph88%30.40 "HgN/A
7:00 pm30 °FClear.3 mph85%30.40 "Hg5 mi
6:00 pm31 °FChilly.3 mph83%30.41 "HgN/A
5:00 pm34 °FChilly.3 mph77%30.40 "HgN/A
4:00 pm36 °FSunny.3 mph71%30.40 "Hg5 mi
3:00 pm38 °FChilly.5 mph68%30.39 "HgN/A
2:00 pm38 °FChilly.6 mph67%30.39 "HgN/A
1:00 pm38 °FChilly.5 mph67%30.40 "HgN/A
12:00 pm37 °FChilly.5 mph73%30.41 "HgN/A
11:00 am35 °FChilly.5 mph79%30.44 "HgN/A
10:00 am33 °FFog.5 mph81%30.46 "Hg3 mi
9:00 am29 °FChilly.3 mph87%30.47 "HgN/A
8:00 am27 °FChilly.5 mph90%30.47 "HgN/A
7:00 am26 °FClear.5 mph90%30.46 "Hg12 mi
6:00 am26 °FClear.5 mph90%30.46 "Hg6 mi
Weather by CustomWeather, © 2016

See weather overviewHow to use our weather pages